Location: Casone le Fosse
(44.6547°N, 12.1103°E)
Time: 09:02:57
(UTC+00:00)

MOS 1 Rocket - Pass Details

Date: 29 October 2020
Orbit: 615 x 829 km, 97.4° (Epoch: 28 November)

Event Time Altitude Azimuth Distance (km) Brightness Sun altitude
Rises 18:02:07 0° 13° (NNE) 3,052 6.5 -21.5°
Reaches altitude 10° 18:04:19 10° 15° (NNE) 2,163 5.7 -21.9°
Maximum altitude 18:09:04 79° 102° (ESE) 745 3.2 -22.7°
Drops below altitude 10° 18:14:06 10° 190° (S) 2,285 6.0 -23.6°
Sets 18:16:28 0° 191° (S) 3,237 6.8 -24.0°
